[[{"header":{"parameterUnit":"m.s-1","parameterCategory":1,"la1":30.2991,"la2":30.254,"lo1":-89.0895,"lo2":-89.0444,"dy":0.0017,"dx":0.0017,"nx":28,"ny":28,"refTime":"2025-08-29T03:00:00:Z","depth":0,"parameterNumber":2,"parameterNumberName":"U-component_of_WINDS"},"data":[0,0,0,0,0,0,0,0,0,0,0,0,0,0,0,0,0,0,0,0,0,0,0,0,0,0,0,0,0,0,0,0,0,0,0,0,0,0,0,0,0,0,0,0,0,0,0,0,0,0,0,0,0,0,0,0,0,0,4.5141,4.5143,0,4.5311,4.5313,4.5315,4.5273,4.527,4.5267,4.5264,4.5438,4.5445,4.5453,0,0,0,0,0,0,0,0,0,0,0,0,0,4.4781,4.4788,4.5141,4.5143,4.5146,4.5311,4.5313,4.5315,4.5274,4.527,4.5266,4.5262,4.5435,4.5444,4.5453,0,0,0,0,0,0,0,0,0,0,0,0,0,4.4943,4.479,4.5141,4.5145,4.5147,4.531,4.5313,4.5316,4.5275,4.527,4.5265,4.526,4.5432,4.5443,4.5455,4.5625,0,0,4.549,4.5495,0,0,0,0,0,0,0,0,4.4934,4.4956,4.5142,4.5145,4.5147,4.5266,4.525,4.5419,4.5276,4.5226,4.5263,4.5258,4.5384,4.54,4.5442,4.5633,4.564,4.5491,4.5498,4.5503,4.5506,0,0,0,0,0,0,0,4.4923,4.4949,4.5208,4.5145,4.5148,4.5138,4.5155,4.5282,4.5331,4.523,4.5227,4.5248,4.5385,4.5431,4.5446,4.5643,4.5491,4.5501,4.5508,4.5513,4.598,4.5985,0,0,0,0,0,0,4.4909,4.494,4.5203,4.5213,4.5026,4.5148,4.5168,4.5233,4.5329,4.5339,4.5252,4.5246,4.5414,4.5433,4.5452,4.5656,4.5503,4.5514,4.552,4.5975,4.5981,4.5987,0,0,0,0,0,0,4.4902,4.4933,4.5196,4.5076,4.5109,4.516,4.5233,4.5239,4.5285,4.5346,4.5355,4.529,4.5411,4.5436,4.5582,4.5662,4.5519,4.5529,4.5968,4.5977,4.5984,4.6067,0,0,0,0,0,0,4.4892,4.4931,4.4996,4.5078,4.5115,4.5323,4.5238,4.5246,4.5305,4.5298,4.5384,4.5394,4.5409,4.5565,4.5593,4.5675,4.5538,4.5961,4.5972,4.5982,4.6057,4.6077,4.6094,0,0,0,0,0,4.4879,4.5013,4.5,4.5032,4.5198,4.5328,4.5349,4.5364,4.5312,4.5377,4.5416,4.5391,4.5649,4.558,4.5612,4.5698,4.5956,4.5969,4.5981,4.6049,4.6073,4.6094,0,0,0,0,0,0,4.494,4.5024,4.501,4.5174,4.5244,4.5321,4.5404,4.5389,4.5476,4.5465,4.548,4.55,4.5648,4.5688,4.561,4.5867,4.5795,4.5814,4.5836,4.5859,4.5877,4.5864,4.5548,0,0,0,0,0,4.4972,4.5071,4.5139,4.5278,4.5314,4.5353,4.541,4.5415,4.5488,4.5518,4.5568,4.564,4.5737,4.58,4.5893,4.6063,4.6081,4.6138,4.6157,4.6171,4.6188,4.6279,4.6305,4.6028,4.6028,4.6027,0,0,4.5041,4.5099,4.516,4.5292,4.5346,4.5448,4.5378,4.5489,4.5564,4.5535,4.5675,4.5714,4.5796,4.5954,4.6026,4.5992,4.6268,4.6187,4.6198,4.6207,4.6295,4.6321,4.6344,4.6036,4.6035,4.6033,0,0,4.5217,4.5271,4.5392,4.5448,4.5532,4.5557,4.5586,4.5665,4.569,4.5831,4.581,4.59,4.6067,4.6126,4.6177,4.6375,4.6354,4.6405,4.65,4.6589,4.6611,4.663,4.67,4.6725,4.6421,4.6421,4.6421,0,4.5291,4.5444,4.5456,4.5569,4.5627,4.5604,4.5726,4.578,4.589,4.593,4.589,4.6098,4.6151,4.6323,4.6371,4.6414,4.6446,4.6395,4.6607,4.6626,4.6645,4.6711,4.6737,4.6427,4.6426,4.6425,4.6425,0,4.553,4.5636,4.5724,4.583,4.5898,4.6015,4.6044,4.6112,4.6111,4.614,4.6283,4.6346,4.6451,4.6492,4.6492,4.6663,4.6639,4.6603,4.653,4.6676,4.6739,4.6764,4.6434,4.6432,4.6431,4.6429,0,0,4.575,4.5861,4.5893,4.594,4.603,4.6112,4.6228,4.6329,4.6386,4.6463,4.6559,4.6701,4.6667,4.6726,4.6733,4.6811,4.6962,4.6765,4.6767,4.6799,4.7153,4.7178,4.7208,4.6949,4.6954,4.6958,4.7145,0,4.5933,4.6137,4.6151,4.6334,4.6431,4.6411,4.6511,4.6577,4.6608,4.6695,4.6728,4.6828,4.6777,4.6812,4.6889,4.6927,4.7033,4.6914,4.7038,4.7043,4.7018,4.7241,4.7269,4.7442,4.717,4.7174,4.7177,0,4.6175,4.6258,4.6451,4.6526,4.6567,4.6657,4.6751,4.6835,4.6909,4.6925,4.699,4.6986,4.7104,4.7027,4.7189,4.7108,4.716,4.7186,4.7193,4.7205,4.7118,4.7257,4.7498,4.7524,4.7216,4.7213,4.721,0,4.6314,4.6474,4.661,4.6651,4.6743,4.6806,4.6847,4.6917,4.6976,4.7059,4.7097,4.7192,4.7244,4.7318,4.7339,4.7281,4.75,4.7426,4.7516,4.7516,4.7563,4.7559,4.7815,4.7598,4.7598,4.7597,4.7597,0,4.6517,4.6636,4.6673,4.6757,4.6889,4.6904,4.7034,4.7071,4.7133,4.7223,4.7211,4.7296,4.7319,4.7408,4.7425,4.7556,4.758,4.7596,4.7599,4.7597,4.7595,4.763,4.7618,4.7604,4.7603,4.7601,4.76,0,4.6695,4.6725,4.6872,4.6946,4.6967,4.7061,4.7125,4.7205,4.7233,4.7347,4.7374,4.7419,4.7523,4.7551,4.7676,4.7688,4.7841,4.7834,4.7816,4.7816,4.7904,4.7895,4.8191,4.823,4.7988,4.7991,4.7993,0,4.6822,4.6912,4.6996,4.7055,4.7099,4.7195,4.7255,4.7274,4.7337,4.7428,4.7497,4.7599,4.7682,4.7848,4.7892,4.7987,4.7981,4.8078,4.7995,4.7989,4.7981,4.7974,4.7983,4.8093,4.8096,4.8098,4.8099,0,4.7044,4.7054,4.7142,4.7235,4.7308,4.7382,4.7454,4.7503,4.7531,4.7603,4.7708,4.7772,4.7899,4.8,4.8096,4.8138,4.8124,4.8125,4.8151,4.8149,4.8134,4.8142,4.7857,4.8118,4.8116,4.8115,4.8114,4.8113,4.72,4.7278,4.7349,4.7447,4.7503,4.7569,4.7647,4.7685,4.7774,4.7878,4.7883,4.7997,4.8068,4.8195,4.8242,4.8332,4.8303,4.8341,4.835,4.8359,4.8365,4.8121,4.835,4.8349,4.8349,4.8348,4.8348,0,4.742,4.7464,4.7554,4.7653,4.773,4.771,4.7787,4.7853,4.7953,4.8021,4.8102,4.8222,4.832,4.8371,4.8468,4.853,4.8526,4.8555,4.855,4.8559,4.8387,4.8354,4.8557,4.8556,4.8556,4.8556,4.8556,4.8556,4.7543,4.7675,4.7693,4.7852,4.7896,4.8007,4.8053,4.8114,4.8168,4.8303,4.8384,4.8416,4.8477,4.8578,4.8666,4.8679,4.8714,4.8747,4.8756,4.8593,4.8572,4.8551,4.8521,4.8755,4.8755,4.8921,4.8922,4.8924]},{"header":{"parameterUnit":"m.s-1","parameterCategory":1,"la1":30.2991,"la2":30.254,"lo1":-89.0895,"lo2":-89.0444,"dy":0.0017,"dx":0.0017,"nx":28,"ny":28,"refTime":"2025-08-29T03:00:00:Z","depth":0,"parameterNumber":3,"parameterNumberName":"V-component_of_WINDS"},"data":[0,0,0,0,0,0,0,0,0,0,0,0,0,0,0,0,0,0,0,0,0,0,0,0,0,0,0,0,0,0,0,0,0,0,0,0,0,0,0,0,0,0,0,0,0,0,0,0,0,0,0,0,0,0,0,0,0,0,0.3185,0.3185,0,0.324,0.324,0.3241,0.3191,0.3189,0.3187,0.3185,0.3245,0.3249,0.3252,0,0,0,0,0,0,0,0,0,0,0,0,0,0.304,0.3043,0.3185,0.3185,0.3186,0.3239,0.324,0.3241,0.3192,0.3189,0.3187,0.3184,0.3244,0.3248,0.3253,0,0,0,0,0,0,0,0,0,0,0,0,0,0.31,0.3044,0.3185,0.3168,0.3167,0.3239,0.324,0.3241,0.3192,0.3189,0.3186,0.3183,0.3243,0.3248,0.3253,0.3346,0,0,0.3269,0.3271,0,0,0,0,0,0,0,0,0.3097,0.3105,0.317,0.3169,0.3168,0.3205,0.3211,0.3277,0.3193,0.3183,0.3185,0.3182,0.3235,0.324,0.3258,0.3349,0.3351,0.327,0.3273,0.3275,0.3276,0,0,0,0,0,0,0,0.3093,0.3103,0.3206,0.3171,0.317,0.3158,0.3164,0.3223,0.3225,0.3183,0.318,0.3187,0.3234,0.3253,0.3259,0.3352,0.3269,0.3274,0.3277,0.3279,0.3523,0.3527,0,0,0,0,0,0,0.309,0.31,0.3205,0.3208,0.3124,0.3164,0.3169,0.3197,0.3224,0.3226,0.3189,0.3184,0.3245,0.3253,0.3261,0.3372,0.3275,0.328,0.3283,0.352,0.3524,0.3528,0,0,0,0,0,0,0.3087,0.31,0.3203,0.3153,0.3165,0.3169,0.32,0.3199,0.3218,0.3229,0.3229,0.3208,0.3243,0.3253,0.3325,0.3374,0.3282,0.3287,0.3516,0.3521,0.3526,0.3596,0,0,0,0,0,0,0.3083,0.3099,0.3134,0.3154,0.3168,0.3266,0.3203,0.3203,0.3227,0.3221,0.3247,0.3248,0.3241,0.3318,0.333,0.3379,0.3291,0.3512,0.3518,0.3524,0.359,0.3603,0.3614,0,0,0,0,0,0.3078,0.3152,0.3136,0.3149,0.3211,0.3268,0.3277,0.3266,0.3231,0.3266,0.3273,0.3247,0.3366,0.3325,0.3339,0.3391,0.3509,0.3517,0.3524,0.3584,0.36,0.3614,0,0,0,0,0,0,0.3139,0.3154,0.3137,0.3219,0.3243,0.326,0.3305,0.3284,0.3319,0.3312,0.3299,0.3305,0.3382,0.3393,0.3348,0.3482,0.3432,0.3442,0.3473,0.3488,0.35,0.3497,0.3295,0,0,0,0,0,0.3161,0.3205,0.3217,0.3289,0.3301,0.3301,0.3325,0.3315,0.334,0.335,0.3362,0.3388,0.3431,0.346,0.35,0.359,0.3596,0.3632,0.3644,0.3654,0.3665,0.3714,0.3731,0.3553,0.3552,0.3552,0,0,0.3209,0.3223,0.3252,0.3301,0.3318,0.3365,0.331,0.3362,0.3397,0.3358,0.3427,0.3437,0.3464,0.3546,0.3583,0.3558,0.3715,0.3664,0.3672,0.3677,0.3724,0.3741,0.3756,0.3558,0.3557,0.3556,0,0,0.3322,0.3336,0.3397,0.3415,0.3441,0.344,0.3455,0.3475,0.348,0.3548,0.352,0.3562,0.3636,0.3657,0.3678,0.3797,0.3775,0.381,0.3876,0.3924,0.3939,0.3951,0.3995,0.4011,0.3819,0.382,0.382,0,0.3379,0.3447,0.3432,0.3486,0.3509,0.3474,0.3538,0.3556,0.3594,0.3611,0.3582,0.3674,0.3691,0.3777,0.3806,0.3823,0.3841,0.3808,0.3937,0.395,0.3961,0.4003,0.402,0.3824,0.3823,0.3823,0.3823,0,0.3517,0.3565,0.3612,0.3649,0.3676,0.3735,0.373,0.376,0.3747,0.3749,0.382,0.3837,0.3881,0.39,0.3888,0.3985,0.3969,0.3939,0.3888,0.3983,0.4022,0.4038,0.383,0.3829,0.3827,0.3826,0,0,0.3671,0.3698,0.3716,0.3732,0.3757,0.3795,0.3852,0.3893,0.392,0.3947,0.3995,0.4058,0.403,0.4053,0.4043,0.4085,0.418,0.405,0.4051,0.4076,0.429,0.4315,0.4333,0.4164,0.4167,0.417,0.4289,0,0.3786,0.3884,0.3872,0.3966,0.4011,0.3978,0.4027,0.4049,0.4052,0.4092,0.4095,0.4141,0.4099,0.4113,0.4153,0.416,0.4224,0.4151,0.4212,0.4214,0.4208,0.4354,0.438,0.4491,0.4304,0.4306,0.4308,0,0.3933,0.3965,0.4063,0.4082,0.41,0.4145,0.4182,0.4219,0.4243,0.4243,0.4268,0.425,0.4308,0.4254,0.4335,0.4286,0.431,0.4317,0.4321,0.4328,0.4269,0.4367,0.4526,0.4544,0.4332,0.433,0.4328,0,0.4038,0.4105,0.4173,0.4188,0.4211,0.4243,0.4255,0.4275,0.4301,0.4333,0.4349,0.4388,0.441,0.4441,0.4435,0.4395,0.4518,0.4463,0.4521,0.4521,0.455,0.4549,0.4717,0.4561,0.4561,0.4561,0.456,0,0.4169,0.4232,0.4221,0.4263,0.4332,0.4317,0.4386,0.4393,0.4411,0.4455,0.4428,0.447,0.4457,0.4499,0.4494,0.4563,0.4572,0.4575,0.4573,0.4579,0.4579,0.4596,0.4589,0.4565,0.4564,0.4563,0.4563,0,0.43,0.4295,0.4367,0.4382,0.4387,0.4438,0.4451,0.4491,0.4491,0.4547,0.4559,0.456,0.4608,0.4603,0.4657,0.4653,0.4739,0.4727,0.4731,0.4729,0.4788,0.4784,0.4976,0.5001,0.4826,0.4828,0.4829,0,0.4385,0.4432,0.4451,0.4478,0.4491,0.4535,0.456,0.4547,0.4575,0.4605,0.4642,0.4686,0.4721,0.4799,0.4805,0.4846,0.4836,0.4901,0.4843,0.4847,0.484,0.4838,0.4844,0.4913,0.4915,0.4917,0.4918,0,0.4537,0.4532,0.4569,0.4606,0.4637,0.4665,0.4691,0.4714,0.4703,0.4736,0.4784,0.4811,0.4865,0.491,0.4948,0.4961,0.4939,0.4936,0.4952,0.4959,0.496,0.4963,0.4765,0.4932,0.4931,0.493,0.4929,0.4928,0.4649,0.4689,0.4709,0.4752,0.4769,0.4794,0.4833,0.4837,0.4876,0.4918,0.4908,0.4962,0.4984,0.5033,0.5049,0.5092,0.5069,0.5092,0.5098,0.5104,0.5112,0.4951,0.5099,0.5098,0.5098,0.5098,0.5097,0,0.4801,0.4812,0.4851,0.4887,0.4921,0.4895,0.4922,0.4952,0.5,0.5022,0.5056,0.5111,0.5154,0.5163,0.5205,0.5238,0.5229,0.5249,0.5248,0.5252,0.5129,0.5112,0.5256,0.5256,0.5256,0.5256,0.5256,0.5256,0.4885,0.4952,0.4949,0.5026,0.5036,0.5088,0.5106,0.5129,0.5146,0.5208,0.5244,0.5249,0.5266,0.5308,0.5347,0.5349,0.5367,0.5392,0.539,0.5276,0.526,0.5245,0.5229,0.5395,0.5395,0.5509,0.551,0.5511]}]]